Location: Москва
(55.7504°N, 37.6175°E)
Time: 20:35:34
(UTC+03:00)

Nauka - Pass Details

Date: 04 October 2021
Orbit: 417 x 423 km, 51.6° (Epoch: 26 October)

Event Time Altitude Azimuth Distance (km) Brightness Sun altitude
Rises 18:59:10 0° 273° (W) 2,367 ? -9.6°
Reaches altitude 10° 19:01:56 10° 249° (WSW) 1,500 ? -10.0°
Maximum altitude 19:03:54 15° 213° (SSW) 1,240 ? -10.2°
Drops below altitude 10° 19:05:52 10° 177° (S) 1,497 ? -10.5°
Enters shadow 19:08:02 - 156° (SSE) 2,156 ? -10.8°
